Weather History for Punta Gorda, FL

Change the Weather History Date:

Thursday, May 2, 2013

  Actual Average Record
Temperature  
Mean Temperature 70 °F -  
Max Temperature 77 °F 84 °F 93 °F (2011)
Min Temperature 66 °F 61 °F 52 °F (1999)
Cooling Degree Days 6    
Growing Degree Days 20 (Base 50)    
Moisture  
Dew Point 67 °F    
Average Humidity 92    
Maximum Humidity 100    
Minimum Humidity 76    
Precipitation  
Precipitation 0.31 in - - ()
Sea Level Pressure  
Sea Level Pressure 29.92 in    
Wind  
Wind Speed 4 mph (East)    
Max Wind Speed 8 mph    
Max Gust Speed -    
Visibility 9 miles    
Events Rain    
Averages and records for this station are not official NWS values.
T = Trace of Precipitation, MM = Missing Value Source: NWS Daily Summary

Daily Weather History Graph

Daily Weather History Graph

Search for Another Location

Airport:

Trip Planner

Search our weather history database for the weather conditions in past years. The results will help you decide how hot, cold, wet, or windy it might be!

Date:

Astronomy

May. 02, 2013 Rise Set
Actual Time 6:48 AM EDT 8:01 PM EDT
Civil Twilight 6:24 AM EDT 8:26 PM EDT
Nautical Twilight 5:54 AM EDT 8:55 PM EDT
Astronomical Twilight 5:24 AM EDT 9:25 PM EDT
Moon 1:54 AM EDT (5/2) 1:27 PM EDT (5/2)
Length of Visible Light 14h 02m
Length of Day
13h 12m
Waning Gibbous, 48% of the Moon is Illuminated
May 2
Waning Gibbous
May 9
New
May 18
First Quarter
May 25
Full
May 31
Last Quarter

Hourly Weather History & Observations

Time (EDT) Temp. Dew Point Humidity Pressure Visibility Wind Dir Wind Speed Gust Speed Precip Events Conditions
12:53 AM 68.0 °F 66.0 °F 93% 29.97 in 10.0 mi ENE 4.6 mph - 0.02 in   Overcast
1:08 AM 68.0 °F 66.2 °F 94% 29.96 in 10.0 mi East 3.5 mph - N/A   Overcast
1:53 AM 66.9 °F 66.0 °F 97% 29.95 in 10.0 mi East 4.6 mph - N/A   Overcast
2:53 AM 66.9 °F 66.0 °F 97% 29.94 in 10.0 mi East 3.5 mph - N/A   Overcast
3:12 AM 66.2 °F 64.4 °F 94% 29.93 in 10.0 mi ENE 4.6 mph - N/A   Scattered Clouds
3:53 AM 66.9 °F 66.0 °F 97% 29.93 in 10.0 mi NE 3.5 mph - N/A   Mostly Cloudy
4:53 AM 66.9 °F 66.0 °F 97% 29.93 in 10.0 mi ENE 4.6 mph - N/A   Scattered Clouds
5:25 AM 68.0 °F 66.2 °F 94% 29.93 in 10.0 mi Calm Calm - N/A   Mostly Cloudy
5:53 AM 68.0 °F 66.9 °F 96% 29.92 in 10.0 mi ENE 4.6 mph - N/A   Overcast
6:53 AM 68.0 °F 66.9 °F 96% 29.93 in 6.0 mi ENE 8.1 mph - N/A   Overcast
7:32 AM 69.8 °F 68.0 °F 94% 29.93 in 8.0 mi ENE 5.8 mph - N/A   Scattered Clouds
7:53 AM 69.1 °F 68.0 °F 96% 29.94 in 8.0 mi ENE 3.5 mph - N/A   Scattered Clouds
8:06 AM 69.8 °F 68.0 °F 94% 29.94 in 10.0 mi NE 5.8 mph - N/A   Mostly Cloudy
8:22 AM 69.8 °F 68.0 °F 94% 29.93 in 10.0 mi NE 6.9 mph - N/A   Overcast
8:44 AM 69.8 °F 68.0 °F 94% 29.94 in 8.0 mi NE 6.9 mph - N/A   Overcast
8:53 AM 70.0 °F 68.0 °F 93% 29.94 in 8.0 mi ENE 5.8 mph - N/A   Overcast
9:37 AM 69.8 °F 68.0 °F 94% 29.95 in 8.0 mi East 3.5 mph - N/A   Overcast
10:42 AM 69.8 °F 69.8 °F 100% 29.96 in 6.0 mi SE 4.6 mph - 0.04 in Rain Light Rain
10:49 AM 69.8 °F 69.8 °F 100% 29.95 in 5.0 mi ESE 4.6 mph - 0.05 in Rain Rain
10:53 AM 70.0 °F 69.1 °F 97% 29.96 in 4.0 mi SE 4.6 mph - 0.06 in Rain Rain
11:19 AM 69.8 °F 69.8 °F 100% 29.95 in 5.0 mi South 6.9 mph - 0.03 in Rain Rain
11:53 AM 70.0 °F 68.0 °F 93% 29.94 in 7.0 mi SE 4.6 mph - 0.07 in Rain Light Rain
12:00 PM 69.8 °F 66.2 °F 88% 29.93 in 7.0 mi Calm Calm - 0.01 in Rain Light Rain
12:53 PM 71.1 °F 68.0 °F 90% 29.92 in 10.0 mi ESE 5.8 mph - 0.06 in   Partly Cloudy
1:53 PM 72.0 °F 68.0 °F 87% 29.91 in 10.0 mi ENE 3.5 mph - 0.06 in   Clear
2:53 PM 73.0 °F 68.0 °F 84% 29.92 in 10.0 mi SSE 4.6 mph - 0.04 in   Clear
3:53 PM 73.0 °F 66.0 °F 79% 29.89 in 10.0 mi Calm Calm - 0.00 in   Partly Cloudy
4:53 PM 73.9 °F 66.0 °F 76% 29.87 in 10.0 mi Calm Calm - N/A   Clear
5:53 PM 75.0 °F 66.9 °F 76% 29.86 in 10.0 mi East 6.9 mph - N/A   Clear
6:53 PM 75.0 °F 66.9 °F 76% 29.86 in 10.0 mi ENE 8.1 mph - N/A   Partly Cloudy
7:53 PM 73.0 °F 66.9 °F 81% 29.85 in 10.0 mi Calm Calm - N/A   Clear
8:53 PM 70.0 °F 66.9 °F 90% 29.87 in 10.0 mi Calm Calm - N/A   Clear
9:12 PM 71.6 °F 68.0 °F 88% 29.87 in 10.0 mi SE 8.1 mph - N/A   Mostly Cloudy
9:33 PM 69.8 °F 66.2 °F 88% 29.87 in 10.0 mi SE 4.6 mph - N/A   Scattered Clouds
9:53 PM 69.1 °F 66.0 °F 90% 29.88 in 10.0 mi SE 4.6 mph - N/A   Partly Cloudy
10:12 PM 69.8 °F 66.2 °F 88% 29.88 in 10.0 mi SSE 3.5 mph - N/A   Mostly Cloudy
10:38 PM 68.0 °F 66.2 °F 94% 29.88 in 10.0 mi SE 3.5 mph - N/A   Scattered Clouds
10:53 PM 66.9 °F 66.0 °F 97% 29.88 in 10.0 mi SE 4.6 mph - N/A   Clear
11:53 PM 66.9 °F 66.0 °F 97% 29.88 in 10.0 mi SSE 4.6 mph - N/A   Clear